Bellingham, WA
on Saturday, February 16, 2013

Saturday
Previous Day Next Day
Daily Summary
 ActualAverageRecord
Temperature
Mean Temperature °F 41°F  
Max Temperature 55°F 48°F 59°F (1996)
Min Temperature 44°F 33°F 15°F (1956)
Degree Days
Heating Degree Days 16 24  
Month to date heating degree days 395  
Cooling Degree Days 0 0  
Month to date cooling degree days 0  
Year to date cooling degree days 0  
Moisture
Dew Point 41°F   
Average Humidity 73    
Maximum Humidity 83    
Minimum Humidity 51    
Precipitation
Precipitation 0.07 in 0.10 in 3.21 in (1949)
Month to date precipitation 1.78  
Year to date precipitation 6.45  
Wind
Wind Speed 5 mph   
Max Wind Speed 13 mph   
Max Gust Speed 20 mph   
Visibility 9 miles   
Events Rain   

Key: T is trace of precipitation, MM is missing value
Source: NWS Daily Summary
Time(PST)TemperatureDew PointHumidity Pressure Visibility Wind DirectionWind SpeedGust SpeedPrecipitationEvents Conditions
12:33 AM 44.6°F 39.2°F 81% 30.16 in 8.0 miles Calm Calm - N/A   Overcast
12:42 AM 46.4°F 39.2°F 76% 30.16 in 9.0 miles SSE 3.5 mph - N/A   Overcast
12:53 AM 46.0°F 41.0°F 83% 30.18 in 8.0 miles South 3.5 mph - N/A   Overcast
1:53 AM 48.0°F 42.1°F 80% 30.17 in 10.0 miles Calm Calm - N/A   Overcast
2:08 AM 48.2°F 42.8°F 82% 30.14 in 10.0 miles SE 4.6 mph - N/A   Overcast
2:19 AM 48.2°F 42.8°F 82% 30.14 in 10.0 miles Calm Calm - N/A   Overcast
2:27 AM 48.2°F 42.8°F 82% 30.14 in 9.0 miles Calm Calm - N/A   Overcast
2:38 AM 48.2°F 42.8°F 82% 30.14 in 8.0 miles Calm Calm - N/A   Overcast
2:53 AM 48.0°F 43.0°F 83% 30.16 in 10.0 miles Calm Calm - 0.00 in Rain Light Rain
3:42 AM 48.2°F 42.8°F 82% 30.12 in 4.0 miles Variable 4.6 mph - 0.00 in Rain Light Rain
3:53 AM 48.0°F 43.0°F 83% 30.14 in 5.0 miles South 4.6 mph - 0.00 in Rain Light Rain
4:53 AM 48.0°F 43.0°F 83% 30.13 in 6.0 miles South 11.5 mph - 0.05 in Rain Light Rain
5:44 AM 48.2°F 42.8°F 82% 30.10 in 10.0 miles South 11.5 mph - 0.01 in Rain Light Rain
5:53 AM 48.9°F 43.0°F 80% 30.12 in 10.0 miles South 11.5 mph 19.6 mph 0.01 in   Overcast
6:53 AM 48.9°F 43.0°F 80% 30.13 in 9.0 miles SSE 11.5 mph 18.4 mph N/A   Overcast
7:05 AM 48.2°F 42.8°F 82% 30.10 in 10.0 miles South 11.5 mph 16.1 mph N/A   Overcast
7:53 AM 50.0°F 43.0°F 77% 30.15 in 10.0 miles South 9.2 mph - N/A   Overcast
8:53 AM 50.0°F 43.0°F 77% 30.14 in 10.0 miles SSE 10.4 mph - N/A   Overcast
9:28 AM 50.0°F 42.8°F 76% 30.12 in 10.0 miles SSE 10.4 mph - N/A   Overcast
9:53 AM 50.0°F 43.0°F 77% 30.14 in 10.0 miles SSE 12.7 mph - N/A   Mostly Cloudy
10:00 AM 50.0°F 42.8°F 76% 30.11 in 10.0 miles SSE 9.2 mph - N/A   Mostly Cloudy
10:53 AM 53.1°F 43.0°F 69% 30.14 in 10.0 miles SSE 10.4 mph 17.3 mph N/A   Scattered Clouds
11:53 AM 55.0°F 41.0°F 59% 30.14 in 10.0 miles SSW 8.1 mph - N/A   Scattered Clouds
12:53 PM 55.0°F 37.0°F 51% 30.12 in 10.0 miles South 8.1 mph - N/A   Scattered Clouds
1:53 PM 55.9°F 37.9°F 51% 30.11 in 10.0 miles South 5.8 mph - N/A   Scattered Clouds
2:53 PM 53.1°F 39.0°F 59% 30.11 in 10.0 miles South 6.9 mph - N/A   Mostly Cloudy
3:53 PM 52.0°F 39.0°F 61% 30.12 in 10.0 miles Variable 4.6 mph - 0.00 in Rain Light Rain
4:53 PM 50.0°F 39.9°F 68% 30.11 in 10.0 miles South 6.9 mph - 0.00 in   Overcast
5:53 PM 50.0°F 39.9°F 68% 30.11 in 10.0 miles SSE 9.2 mph - N/A   Overcast
6:53 PM 50.0°F 39.9°F 68% 30.12 in 10.0 miles South 3.5 mph - 0.00 in   Overcast
7:53 PM 50.0°F 39.0°F 66% 30.13 in 10.0 miles Variable 5.8 mph - 0.01 in Rain Light Rain
8:53 PM 50.0°F 37.9°F 63% 30.14 in 10.0 miles SW 4.6 mph - 0.00 in   Overcast
9:53 PM 50.0°F 37.9°F 63% 30.15 in 10.0 miles Variable 4.6 mph - N/A   Overcast
10:53 PM 48.9°F 37.9°F 66% 30.17 in 10.0 miles Calm Calm - N/A   Overcast
11:53 PM 48.9°F 37.9°F 66% 30.18 in 10.0 miles Calm Calm - N/A   Overcast
Moon Phase
Feb. 16 Feb. 17 Feb. 25 Mar. 04 Mar. 11
Sunrise:07:15 AM (PST) Moon Rise:09:54 AM (PST)2/16
Sunset:05:33 PM (PST) Moon Set:12:14 AM (PST)2/16

Copyright © 2014 The Weather Underground, Inc.